YG9099 ZYCC-ZYTL

Flight info

Callsign YG9099
Flight time 1h 7m
Altitude 32100
Route LEMOT8D LEMOT A588 CHI CHI19A
Aircraft B763/H-SDE3FGHIM3RWXY/LB1

Departure

Time 2026-04-22 10:05
Airport Changchun Longjia International Airport (ZYCC)

Arrival

Time 2026-04-22 11:12
Airport Dalian Zhoushuizi International Airport (ZYTL)
Time Latitude Longitude Altitude Speed Heading
2026-04-22 09:36 44.00234 125.70210 718 ft 0 kts 319°
2026-04-22 09:50 44.00224 125.70222 718 ft 2 kts 319°
2026-04-22 09:50 44.00213 125.70235 718 ft 2 kts 322°
2026-04-22 09:50 44.00200 125.70246 718 ft 2 kts 342°
2026-04-22 09:51 44.00186 125.70250 718 ft 2 kts 359°
2026-04-22 09:51 44.00171 125.70248 718 ft 2 kts 15°
2026-04-22 09:51 44.00158 125.70241 718 ft 2 kts 32°
2026-04-22 09:51 44.00147 125.70229 718 ft 1 kts 48°
2026-04-22 09:52 44.00144 125.70225 718 ft 0 kts 50°
2026-04-22 09:57 44.00145 125.70226 717 ft 0 kts 50°
2026-04-22 09:57 44.00155 125.70242 717 ft 3 kts 50°
2026-04-22 09:57 44.00172 125.70272 717 ft 4 kts 50°
2026-04-22 09:57 44.00195 125.70309 717 ft 5 kts 50°
2026-04-22 09:58 44.00221 125.70351 717 ft 5 kts 50°
2026-04-22 09:58 44.00245 125.70373 717 ft 3 kts 17°
2026-04-22 09:58 44.00259 125.70372 717 ft 1 kts 345°
2026-04-22 09:58 44.00265 125.70367 717 ft 0 kts 328°
2026-04-22 10:01 44.00266 125.70367 717 ft 0 kts 328°
2026-04-22 10:01 44.00267 125.70366 717 ft 0 kts 328°
2026-04-22 10:01 44.00271 125.70363 717 ft 2 kts 328°
2026-04-22 10:01 44.00293 125.70338 717 ft 4 kts 317°
2026-04-22 10:02 44.00319 125.70306 717 ft 5 kts 317°
2026-04-22 10:02 44.00346 125.70269 717 ft 5 kts 317°
2026-04-22 10:02 44.00382 125.70229 717 ft 7 kts 323°
2026-04-22 10:02 44.00433 125.70174 717 ft 10 kts 322°
2026-04-22 10:03 44.00499 125.70100 717 ft 13 kts 320°
2026-04-22 10:03 44.00520 125.70074 717 ft 0 kts 320°
2026-04-22 10:03 44.00536 125.70055 717 ft 4 kts 319°
2026-04-22 10:03 44.00549 125.70019 717 ft 3 kts 273°
2026-04-22 10:04 44.00539 125.69983 717 ft 3 kts 233°
2026-04-22 10:04 44.00514 125.69943 717 ft 6 kts 230°
2026-04-22 10:04 44.00468 125.69867 717 ft 23 kts 230°
2026-04-22 10:04 44.00250 125.69513 718 ft 72 kts 226°
2026-04-22 10:05 43.99806 125.68804 718 ft 121 kts 229°
2026-04-22 10:05 43.99152 125.67748 771 ft 164 kts 233°
2026-04-22 10:05 43.98378 125.66480 1196 ft 183 kts 230°
2026-04-22 10:05 43.97444 125.65140 1671 ft 207 kts 231°
2026-04-22 10:06 43.96465 125.63653 2382 ft 208 kts 233°
2026-04-22 10:06 43.95454 125.62074 2659 ft 227 kts 232°
2026-04-22 10:06 43.94443 125.60477 3423 ft 222 kts 233°
2026-04-22 10:06 43.93410 125.58822 3899 ft 231 kts 234°
2026-04-22 10:07 43.92368 125.57148 4589 ft 231 kts 234°
2026-04-22 10:07 43.91326 125.55465 5197 ft 234 kts 234°
2026-04-22 10:07 43.90261 125.53742 5846 ft 236 kts 234°
2026-04-22 10:07 43.89201 125.52024 6458 ft 239 kts 234°
2026-04-22 10:08 43.88086 125.50213 6917 ft 254 kts 235°
2026-04-22 10:08 43.86913 125.48308 7454 ft 266 kts 235°
2026-04-22 10:08 43.85723 125.46384 8257 ft 268 kts 236°
2026-04-22 10:08 43.84497 125.44399 9011 ft 272 kts 236°
2026-04-22 10:09 43.83264 125.42401 9758 ft 276 kts 237°
2026-04-22 10:09 43.82016 125.40377 10403 ft 285 kts 237°
2026-04-22 10:09 43.80671 125.38261 10805 ft 306 kts 230°
2026-04-22 10:09 43.78834 125.36561 11230 ft 335 kts 211°
2026-04-22 10:10 43.76506 125.35614 11588 ft 364 kts 193°
2026-04-22 10:10 43.73883 125.35606 12011 ft 389 kts 175°
2026-04-22 10:10 43.71229 125.36635 12675 ft 403 kts 159°
2026-04-22 10:10 43.68748 125.38555 12794 ft 420 kts 144°
2026-04-22 10:11 43.66426 125.40940 12759 ft 411 kts 148°
2026-04-22 10:11 43.63981 125.42855 12760 ft 400 kts 155°
2026-04-22 10:11 43.61474 125.44538 12763 ft 401 kts 158°
2026-04-22 10:11 43.58902 125.46124 12836 ft 408 kts 159°
2026-04-22 10:12 43.56300 125.47666 13668 ft 410 kts 160°
2026-04-22 10:12 43.53648 125.49201 14322 ft 418 kts 160°
2026-04-22 10:12 43.50988 125.50716 15175 ft 419 kts 161°
2026-04-22 10:12 43.48279 125.51936 15878 ft 417 kts 174°
2026-04-22 10:13 43.45394 125.52228 16597 ft 409 kts 191°
2026-04-22 10:13 43.42649 125.51520 17387 ft 397 kts 207°
2026-04-22 10:13 43.40162 125.50032 18095 ft 392 kts 214°
2026-04-22 10:13 43.37722 125.48406 18821 ft 394 kts 214°
2026-04-22 10:14 43.35260 125.46721 19465 ft 398 kts 215°
2026-04-22 10:14 43.32804 125.45023 20141 ft 400 kts 216°
2026-04-22 10:14 43.30307 125.43279 20835 ft 402 kts 216°
2026-04-22 10:14 43.27828 125.41543 21507 ft 404 kts 216°
2026-04-22 10:15 43.25313 125.39778 22078 ft 408 kts 216°
2026-04-22 10:15 43.22777 125.37999 22674 ft 411 kts 216°
2026-04-22 10:15 43.20246 125.36222 23266 ft 412 kts 216°
2026-04-22 10:15 43.17705 125.34438 23771 ft 416 kts 216°
2026-04-22 10:16 43.15108 125.32617 24309 ft 418 kts 216°
2026-04-22 10:16 43.12502 125.30793 24839 ft 421 kts 216°
2026-04-22 10:16 43.09921 125.28987 25375 ft 422 kts 216°
2026-04-22 10:16 43.07288 125.27145 25864 ft 425 kts 216°
2026-04-22 10:17 43.04646 125.25300 26338 ft 427 kts 216°
2026-04-22 10:17 43.02027 125.23473 26824 ft 428 kts 216°
2026-04-22 10:17 42.99353 125.21606 27208 ft 432 kts 216°
2026-04-22 10:17 42.96645 125.19790 27735 ft 435 kts 212°
2026-04-22 10:18 42.93759 125.18478 28066 ft 451 kts 201°
2026-04-22 10:18 42.90630 125.17819 28471 ft 464 kts 192°
2026-04-22 10:18 42.87391 125.17808 28800 ft 473 kts 187°
2026-04-22 10:18 42.84165 125.17643 29156 ft 464 kts 196°
2026-04-22 10:19 42.80993 125.16769 29418 ft 457 kts 206°
2026-04-22 10:19 42.78116 125.15255 29834 ft 445 kts 215°
2026-04-22 10:19 42.75378 125.13345 30170 ft 444 kts 216°
2026-04-22 10:19 42.72618 125.11429 30497 ft 446 kts 216°
2026-04-22 10:20 42.69845 125.09492 30853 ft 446 kts 216°
2026-04-22 10:20 42.67082 125.07561 31052 ft 450 kts 216°
2026-04-22 10:20 42.64312 125.05627 31394 ft 450 kts 216°
2026-04-22 10:20 42.61522 125.03681 31811 ft 448 kts 216°
2026-04-22 10:21 42.58796 125.01780 32115 ft 445 kts 216°
2026-04-22 10:21 42.56031 124.99851 32086 ft 445 kts 216°
2026-04-22 10:21 42.50562 124.96043 32093 ft 444 kts 216°
2026-04-22 10:22 42.45041 124.92204 32090 ft 446 kts 216°
2026-04-22 10:22 42.39559 124.88403 32097 ft 442 kts 215°
2026-04-22 10:23 42.34081 124.84609 32107 ft 443 kts 216°
2026-04-22 10:23 42.28603 124.80824 32109 ft 441 kts 215°
2026-04-22 10:24 42.23142 124.77058 32116 ft 439 kts 215°
2026-04-22 10:24 42.17693 124.73305 32116 ft 441 kts 215°
2026-04-22 10:25 42.12237 124.69557 32109 ft 440 kts 215°
2026-04-22 10:25 42.06811 124.65837 32114 ft 440 kts 215°
2026-04-22 10:26 42.01376 124.62118 32116 ft 439 kts 215°
2026-04-22 10:26 41.95990 124.58291 32108 ft 436 kts 218°
2026-04-22 10:27 41.90748 124.54269 32117 ft 435 kts 218°
2026-04-22 10:27 41.85536 124.50288 32099 ft 433 kts 218°
2026-04-22 10:28 41.80336 124.46323 32105 ft 436 kts 218°
2026-04-22 10:28 41.75106 124.42348 32098 ft 432 kts 218°
2026-04-22 10:29 41.69910 124.38405 32106 ft 433 kts 218°
2026-04-22 10:29 41.64706 124.34462 32101 ft 433 kts 217°
2026-04-22 10:30 41.59486 124.30519 32103 ft 431 kts 218°
2026-04-22 10:30 41.54284 124.26592 32103 ft 432 kts 218°
2026-04-22 10:31 41.49075 124.22671 32105 ft 428 kts 218°
2026-04-22 10:31 41.43924 124.18798 32109 ft 428 kts 218°
2026-04-22 10:32 41.38680 124.14905 32100 ft 430 kts 217°
2026-04-22 10:32 41.33469 124.11127 32098 ft 428 kts 217°
2026-04-22 10:33 41.28274 124.07367 32094 ft 424 kts 217°
2026-04-22 10:33 41.23101 124.03625 32097 ft 426 kts 217°
2026-04-22 10:34 41.17911 123.99881 32099 ft 427 kts 218°
2026-04-22 10:34 41.12703 123.96133 32101 ft 424 kts 218°
2026-04-22 10:35 41.07533 123.92414 32093 ft 423 kts 218°
2026-04-22 10:35 41.02403 123.88735 32101 ft 418 kts 218°
2026-04-22 10:36 40.97271 123.85056 32103 ft 421 kts 218°
2026-04-22 10:36 40.92163 123.81404 32094 ft 418 kts 218°
2026-04-22 10:37 40.84549 123.75973 32090 ft 415 kts 218°
2026-04-22 10:38 40.79496 123.72282 32085 ft 414 kts 219°
2026-04-22 10:38 40.74472 123.68587 32094 ft 413 kts 219°
2026-04-22 10:39 40.69488 123.64928 32091 ft 413 kts 219°
2026-04-22 10:39 40.64484 123.61259 32077 ft 411 kts 219°
2026-04-22 10:40 40.59496 123.57609 32089 ft 410 kts 219°
2026-04-22 10:40 40.54557 123.53999 32067 ft 408 kts 219°
2026-04-22 10:41 40.49607 123.50382 32082 ft 408 kts 219°
2026-04-22 10:41 40.44652 123.46770 32083 ft 408 kts 219°
2026-04-22 10:42 40.39687 123.43160 32040 ft 402 kts 219°
2026-04-22 10:42 40.37275 123.41415 31991 ft 389 kts 219°
2026-04-22 10:42 40.34956 123.39735 31904 ft 377 kts 220°
2026-04-22 10:42 40.32682 123.38082 31394 ft 376 kts 220°
2026-04-22 10:43 40.30396 123.36412 30495 ft 383 kts 220°
2026-04-22 10:43 40.28107 123.34754 30023 ft 376 kts 219°
2026-04-22 10:43 40.25840 123.33114 29572 ft 375 kts 218°
2026-04-22 10:43 40.23528 123.31433 29152 ft 382 kts 218°
2026-04-22 10:44 40.21198 123.29745 28717 ft 390 kts 218°
2026-04-22 10:44 40.18813 123.28022 28322 ft 390 kts 218°
2026-04-22 10:44 40.16455 123.26325 27926 ft 386 kts 217°
2026-04-22 10:44 40.14122 123.24645 27465 ft 383 kts 217°
2026-04-22 10:45 40.11810 123.22980 27047 ft 381 kts 217°
2026-04-22 10:45 40.09484 123.21304 26649 ft 381 kts 217°
2026-04-22 10:45 40.07148 123.19622 26240 ft 382 kts 217°
2026-04-22 10:45 40.04849 123.17969 25854 ft 381 kts 217°
2026-04-22 10:46 40.02523 123.16276 25437 ft 382 kts 216°
2026-04-22 10:46 40.00188 123.14574 25030 ft 382 kts 216°
2026-04-22 10:46 39.97875 123.12889 24631 ft 381 kts 216°
2026-04-22 10:46 39.95590 123.11227 24232 ft 381 kts 216°
2026-04-22 10:47 39.93256 123.09530 23827 ft 381 kts 216°
2026-04-22 10:47 39.90927 123.07838 23423 ft 382 kts 216°
2026-04-22 10:47 39.88671 123.06200 23034 ft 382 kts 215°
2026-04-22 10:47 39.86353 123.04520 22627 ft 382 kts 215°
2026-04-22 10:48 39.84010 123.02821 22224 ft 382 kts 215°
2026-04-22 10:48 39.81696 123.01148 21821 ft 380 kts 215°
2026-04-22 10:48 39.79416 122.99498 21420 ft 378 kts 215°
2026-04-22 10:48 39.77102 122.97825 21024 ft 378 kts 215°
2026-04-22 10:49 39.74811 122.96170 20623 ft 377 kts 214°
2026-04-22 10:49 39.72523 122.94518 20221 ft 376 kts 214°
2026-04-22 10:49 39.70250 122.92879 19837 ft 375 kts 214°
2026-04-22 10:49 39.67963 122.91230 19436 ft 375 kts 214°
2026-04-22 10:50 39.65696 122.89596 19045 ft 373 kts 214°
2026-04-22 10:50 39.63454 122.87983 18652 ft 372 kts 214°
2026-04-22 10:50 39.61165 122.86337 18252 ft 372 kts 214°
2026-04-22 10:50 39.58901 122.84708 17870 ft 372 kts 214°
2026-04-22 10:51 39.56658 122.83099 17480 ft 371 kts 213°
2026-04-22 10:51 39.54413 122.81490 17082 ft 369 kts 214°
2026-04-22 10:51 39.52183 122.79890 16708 ft 368 kts 214°
2026-04-22 10:51 39.49942 122.78284 16329 ft 366 kts 214°
2026-04-22 10:52 39.47711 122.76686 15918 ft 366 kts 213°
2026-04-22 10:52 39.45489 122.75097 15536 ft 367 kts 213°
2026-04-22 10:52 39.43265 122.73507 15151 ft 366 kts 213°
2026-04-22 10:52 39.41016 122.71901 14752 ft 364 kts 213°
2026-04-22 10:53 39.38818 122.70332 14361 ft 361 kts 213°
2026-04-22 10:53 39.36631 122.68772 13976 ft 362 kts 214°
2026-04-22 10:53 39.34409 122.67187 13593 ft 362 kts 213°
2026-04-22 10:53 39.32229 122.65633 13205 ft 360 kts 213°
2026-04-22 10:54 39.30051 122.64084 12829 ft 357 kts 213°
2026-04-22 10:54 39.27877 122.62539 12448 ft 357 kts 213°
2026-04-22 10:54 39.25736 122.60961 12081 ft 355 kts 216°
2026-04-22 10:54 39.23656 122.59267 11738 ft 354 kts 215°
2026-04-22 10:55 39.21572 122.57601 11381 ft 353 kts 216°
2026-04-22 10:55 39.19503 122.55943 11035 ft 351 kts 215°
2026-04-22 10:55 39.17429 122.54284 10779 ft 346 kts 215°
2026-04-22 10:55 39.15406 122.52668 10777 ft 343 kts 215°
2026-04-22 10:56 39.13347 122.51021 10788 ft 350 kts 216°
2026-04-22 10:56 39.11278 122.49370 10787 ft 354 kts 215°
2026-04-22 10:56 39.09207 122.47720 10771 ft 341 kts 215°
2026-04-22 10:56 39.07225 122.46143 10766 ft 326 kts 216°
2026-04-22 10:57 39.05363 122.44662 10763 ft 311 kts 216°
2026-04-22 10:57 39.03471 122.43150 10320 ft 334 kts 215°
2026-04-22 10:57 39.01460 122.41548 10092 ft 336 kts 215°
2026-04-22 10:57 38.99535 122.40024 9991 ft 316 kts 215°
2026-04-22 10:58 38.97692 122.38560 9763 ft 302 kts 215°
2026-04-22 10:58 38.95954 122.37180 9412 ft 295 kts 214°
2026-04-22 10:58 38.94219 122.35801 8895 ft 294 kts 214°
2026-04-22 10:58 38.92498 122.34373 8415 ft 290 kts 223°
2026-04-22 10:59 38.91307 122.32424 8222 ft 268 kts 252°
2026-04-22 10:59 38.90963 122.30182 8041 ft 248 kts 272°
2026-04-22 10:59 38.90989 122.28006 7663 ft 244 kts 285°
2026-04-22 10:59 38.91634 122.26102 7345 ft 231 kts 317°
2026-04-22 11:00 38.92946 122.24974 7024 ft 226 kts 343°
2026-04-22 11:00 38.94501 122.24637 6325 ft 235 kts 11°
2026-04-22 11:00 38.96005 122.25420 5674 ft 241 kts 40°
2026-04-22 11:00 38.97000 122.27170 5009 ft 250 kts 70°
2026-04-22 11:01 38.97131 122.29373 4570 ft 250 kts 102°
2026-04-22 11:01 38.96357 122.31328 4252 ft 248 kts 133°
2026-04-22 11:01 38.94901 122.32488 3932 ft 247 kts 164°
2026-04-22 11:01 38.93210 122.32790 3596 ft 245 kts 174°
2026-04-22 11:02 38.91517 122.32672 3223 ft 244 kts 198°
2026-04-22 11:02 38.90129 122.31544 2934 ft 238 kts 233°
2026-04-22 11:02 38.89483 122.29707 2880 ft 224 kts 267°
2026-04-22 11:02 38.89514 122.27711 2710 ft 231 kts 283°
2026-04-22 11:03 38.89874 122.25670 2470 ft 232 kts 284°
2026-04-22 11:03 38.90200 122.23687 2213 ft 227 kts 283°
2026-04-22 11:03 38.90498 122.21706 2017 ft 220 kts 282°
2026-04-22 11:03 38.90768 122.19782 2006 ft 219 kts 282°
2026-04-22 11:04 38.91020 122.17857 2195 ft 218 kts 281°
2026-04-22 11:04 38.91255 122.15948 2562 ft 223 kts 280°
2026-04-22 11:04 38.91490 122.13934 2875 ft 231 kts 280°
2026-04-22 11:04 38.91718 122.11867 2864 ft 237 kts 279°
2026-04-22 11:05 38.91933 122.09795 2853 ft 228 kts 279°
2026-04-22 11:05 38.92133 122.07800 2869 ft 225 kts 279°
2026-04-22 11:05 38.92327 122.05797 2874 ft 228 kts 278°
2026-04-22 11:05 38.92516 122.03777 2869 ft 229 kts 278°
2026-04-22 11:06 38.92701 122.01748 2867 ft 228 kts 278°
2026-04-22 11:06 38.92880 121.99732 2869 ft 226 kts 278°
2026-04-22 11:06 38.93056 121.97714 2872 ft 227 kts 278°
2026-04-22 11:06 38.93227 121.95712 2876 ft 229 kts 278°
2026-04-22 11:07 38.93399 121.93671 2866 ft 230 kts 278°
2026-04-22 11:07 38.93571 121.91618 2872 ft 229 kts 277°
2026-04-22 11:07 38.93739 121.89591 2869 ft 228 kts 277°
2026-04-22 11:07 38.93904 121.87573 2874 ft 229 kts 278°
2026-04-22 11:08 38.94069 121.85548 2867 ft 229 kts 277°
2026-04-22 11:08 38.94235 121.83490 2879 ft 229 kts 277°
2026-04-22 11:08 38.94397 121.81462 2882 ft 229 kts 278°
2026-04-22 11:08 38.94559 121.79434 2888 ft 228 kts 277°
2026-04-22 11:09 38.94720 121.77406 2878 ft 227 kts 278°
2026-04-22 11:09 38.94879 121.75402 2891 ft 229 kts 277°
2026-04-22 11:09 38.95044 121.73334 2880 ft 230 kts 277°
2026-04-22 11:09 38.95206 121.71287 2605 ft 235 kts 277°
2026-04-22 11:10 38.95369 121.69218 2342 ft 232 kts 278°
2026-04-22 11:10 38.95531 121.67161 2002 ft 232 kts 277°
2026-04-22 11:10 38.95691 121.65129 1690 ft 228 kts 277°
2026-04-22 11:10 38.95847 121.63135 1333 ft 215 kts 277°
2026-04-22 11:11 38.95989 121.61294 1035 ft 202 kts 277°
2026-04-22 11:11 38.96126 121.59564 767 ft 190 kts 277°
2026-04-22 11:11 38.96255 121.57924 533 ft 177 kts 276°
2026-04-22 11:11 38.96373 121.56417 283 ft 162 kts 276°
2026-04-22 11:12 38.96493 121.55054 119 ft 144 kts 277°
2026-04-22 11:12 38.96545 121.54073 118 ft 74 kts 281°
2026-04-22 11:12 38.96598 121.53485 118 ft 65 kts 274°
2026-04-22 11:12 38.96620 121.53068 117 ft 24 kts 274°
2026-04-22 11:13 38.96598 121.52854 117 ft 22 kts 261°
2026-04-22 11:13 38.96592 121.52831 117 ft 2 kts 244°